Location: Newark
(43.9494°N, 6.8108°E)
Time: 04:55:09
(UTC+00:00)

A-11 Canister half - Pass Details

Date: 24 October 2019
Orbit: 1514 x 1686 km, 47.2° (Epoch: 13 November)

Event Time Altitude Azimuth Distance (km) Brightness Sun altitude
Rises 00:10:35 0° 225° (SW) 4,921 - -55.6°
Reaches altitude 10° 00:13:49 10° 222° (SW) 3,924 - -55.4°
Maximum altitude 00:23:39 61° 146° (SE) 1,824 - -54.6°
Exits shadow 00:30:33 21° 73° (ENE) 3,041 10.7 -54.0°
Drops below altitude 10° 00:33:11 10° 69° (ENE) 3,819 11.4 -53.7°
Sets 00:36:17 0° 66° (ENE) 4,783 12.0 -53.4°
